Date String (YYYY-MM-DD hh:mm:ss) UTC,Instrument flags,absolute air pressure of the measurement (hPa),sample flow rate (lpm),inlet stack bypass flow (lpm),air temperature of the measurement (°C),ambient temperature measured by the external sensor (°C),aerosol sample conditioner tube jacket temperature (°C),OPC LED temperature (°C),internal box temperature (°C),relative humidity of the measurement (%),span deviation,mass concentration of particles derived from Lorenz-Mie calculation of OPC scattering (μg/m³),mass concentration of particles derived from Lorenz-Mie calculation of OPC scattering (μg/m³),mass concentration of particles derived from Lorenz-Mie calculation of OPC scattering (μg/m³)
DateTimeUTC,F1_M11,P_M11,Q1_M11,Q2_M11,T1_M11,T2_M11,T3_M11,T4_M11,T5_M11,U1_M11,ZSPAN_M11,X0_M11,X2_M11,X1_M11
2023-08-30 21:00:00,SystemResetWarning,0829.3,5.00,000.00,026.2,022.5,000.0,034.3,027.0,32.3,0000.5,0017.87,0006.20,0005.05
2023-08-30 21:01:00,SystemResetWarning,0829.4,5.01,000.00,026.1,022.3,000.0,034.2,026.9,31.8,-000.5,0016.85,0006.19,0005.05
2023-08-30 21:02:00,SystemResetWarning,0829.4,5.00,000.00,026.0,022.6,000.0,034.2,026.9,33.2,-001.0,0016.22,0006.17,0005.05
2023-08-30 21:03:00,SystemResetWarning,0829.3,5.00,000.00,026.0,023.0,000.0,034.2,027.1,33.1,-001.3,0016.45,0006.18,0005.04
2023-08-30 21:04:00,SystemResetWarning,0829.4,5.00,000.00,026.0,023.5,000.0,034.2,027.3,32.7,-001.3,0017.19,0006.15,0005.02
2023-08-30 21:05:00,SystemResetWarning,0829.3,5.00,000.00,026.1,023.9,000.0,034.2,027.4,29.9,-001.2,0016.38,0006.07,0004.98
2023-08-30 21:06:00,SystemResetWarning,0829.3,4.99,000.00,026.1,023.6,000.0,034.2,027.3,28.9,-000.9,0016.24,0006.05,0004.96
2023-08-30 21:07:00,SystemResetWarning,0829.3,5.00,000.00,026.0,022.6,000.0,034.1,026.9,29.0,0000.0,0016.77,0006.09,0004.96
2023-08-30 21:08:00,SystemResetWarning,0829.2,5.01,000.00,025.9,022.4,000.0,034.1,026.9,28.9,0000.0,0016.95,0006.11,0004.97
2023-08-30 21:09:00,SystemResetWarning,0829.2,5.00,000.00,025.9,022.7,000.0,034.1,026.9,28.6,-000.7,0016.31,0006.02,0004.94
2023-08-30 21:10:00,SystemResetWarning,0829.2,4.99,000.00,025.8,023.1,000.0,034.1,027.1,29.0,-000.2,0015.09,0005.92,0004.91
2023-08-30 21:11:00,SystemResetWarning,0829.2,5.00,000.00,025.9,023.6,000.0,034.1,027.3,29.5,0000.0,0015.36,0005.86,0004.88
2023-08-30 21:12:00,SystemResetWarning,0829.2,5.00,000.00,025.9,024.0,000.0,034.1,027.4,29.0,0000.0,0015.62,0005.79,0004.85
2023-08-30 21:13:00,SystemResetWarning,0829.1,4.99,000.00,025.9,023.5,000.0,034.1,027.2,29.1,0000.0,0015.80,0005.74,0004.81
2023-08-30 21:14:00,SystemResetWarning,0829.2,4.99,000.00,025.9,022.6,000.0,034.0,026.9,29.1,0000.0,0015.94,0005.68,0004.77
2023-08-30 21:15:00,SystemResetWarning,0829.2,5.01,000.00,025.8,022.5,000.0,034.0,026.9,30.0,0000.0,0015.18,0005.64,0004.73
2023-08-30 21:16:00,SystemResetWarning,0829.2,5.01,000.00,025.8,022.7,000.0,034.0,027.0,29.9,0000.0,0015.22,0005.64,0004.71
2023-08-30 21:17:00,SystemResetWarning,0829.2,5.00,000.00,025.8,023.2,000.0,034.0,027.1,30.2,0000.0,0014.84,0005.62,0004.70
2023-08-30 21:18:00,SystemResetWarning,0829.2,5.00,000.00,025.8,023.6,000.0,034.0,027.3,30.6,0000.0,0014.48,0005.57,0004.68
2023-08-30 21:19:00,SystemResetWarning,0829.2,5.00,000.00,025.8,024.0,000.0,034.0,027.4,30.2,0000.0,0014.52,0005.54,0004.64
2023-08-30 21:20:00,SystemResetWarning,0829.2,4.99,000.00,025.9,023.4,000.0,034.0,027.1,29.9,0000.0,0013.83,0005.47,0004.62
2023-08-30 21:21:00,SystemResetWarning,0829.1,5.00,000.00,025.7,022.5,000.0,033.9,026.7,30.1,0000.0,0014.00,0005.42,0004.59
2023-08-30 21:22:00,SystemResetWarning,0829.1,5.01,000.00,025.7,022.4,000.0,033.9,026.8,30.1,0000.0,0013.36,0005.37,0004.58
2023-08-30 21:23:00,SystemResetWarning,0829.1,5.00,000.00,025.6,022.7,000.0,033.9,026.8,29.2,0000.0,0012.65,0005.32,0004.57
2023-08-30 21:24:00,SystemResetWarning,0829.1,4.99,000.00,025.6,023.1,000.0,033.9,027.0,30.1,0000.0,0012.66,0005.34,0004.55
2023-08-30 21:25:00,SystemResetWarning,0829.1,5.00,000.00,025.7,023.6,000.0,033.9,027.2,30.0,0000.1,0013.53,0005.36,0004.54
2023-08-30 21:26:00,SystemResetWarning,0829.1,5.00,000.00,025.7,024.1,000.0,033.9,027.4,29.6,0000.9,0014.72,0005.37,0004.55
2023-08-30 21:27:00,SystemResetWarning,0829.1,4.99,000.00,025.8,024.0,000.0,033.9,027.3,29.1,0001.5,0015.39,0005.39,0004.55
2023-08-30 21:28:00,SystemResetWarning,0829.1,4.98,000.00,025.7,023.0,000.0,033.9,026.9,30.2,0001.8,0015.64,0005.35,0004.53
2023-08-30 21:29:00,SystemResetWarning,0829.0,5.01,000.00,025.6,022.5,000.0,033.8,026.8,28.5,0001.6,0016.18,0005.34,0004.51
2023-08-30 21:30:00,SystemResetWarning,0829.0,5.01,000.00,025.6,022.7,000.0,033.8,026.9,30.0,0003.2,0015.94,0005.38,0004.51
2023-08-30 21:31:00,SystemResetWarning,0829.0,4.99,000.00,025.6,023.0,000.0,033.8,027.0,28.5,0003.3,0017.04,0005.45,0004.52
2023-08-30 21:32:00,SystemResetWarning,0829.0,5.00,000.00,025.6,023.5,000.0,033.8,027.2,29.6,0001.9,0017.59,0005.49,0004.54
2023-08-30 21:33:00,SystemResetWarning,0829.0,4.99,000.00,025.7,024.0,000.0,033.9,027.4,29.4,0000.0,0017.54,0005.50,0004.53
2023-08-30 21:34:00,SystemResetWarning,0829.0,5.01,000.00,025.8,024.3,000.0,033.9,027.5,29.6,0000.0,0017.60,0005.50,0004.52
2023-08-30 21:35:00,SystemResetWarning,0829.0,4.99,000.00,025.7,023.6,000.0,033.9,027.1,29.5,0000.0,0017.55,0005.46,0004.52
2023-08-30 21:36:00,SystemResetWarning,0828.9,4.99,000.00,025.6,022.4,000.0,033.8,026.7,30.1,0000.0,0017.02,0005.46,0004.52
2023-08-30 21:37:00,SystemResetWarning,0828.9,5.01,000.00,025.5,022.0,000.0,033.7,026.6,32.1,0000.0,0015.53,0005.41,0004.51
2023-08-30 21:38:00,SystemResetWarning,0828.9,5.01,000.00,025.5,022.2,000.0,033.7,026.7,31.9,0000.0,0015.04,0005.36,0004.50
2023-08-30 21:39:00,SystemResetWarning,0828.9,4.99,000.00,025.4,022.6,000.0,033.7,026.8,30.6,0000.0,0015.00,0005.36,0004.50
2023-08-30 21:40:00,SystemResetWarning,0829.0,5.00,000.00,025.5,023.2,000.0,033.7,027.0,30.7,0000.0,0014.25,0005.35,0004.50
2023-08-30 21:41:00,SystemResetWarning,0829.0,5.00,000.00,025.5,023.7,000.0,033.8,027.2,30.7,0000.0,0013.72,0005.28,0004.49
2023-08-30 21:42:00,SystemResetWarning,0829.0,5.01,000.00,025.6,024.1,000.0,033.8,027.3,29.6,0000.0,0012.83,0005.18,0004.48
2023-08-30 21:43:00,SystemResetWarning,0829.0,5.00,000.00,025.7,024.1,000.0,033.8,027.3,28.4,0000.0,0012.89,0005.12,0004.46
2023-08-30 21:44:00,SystemResetWarning,0828.9,4.98,000.00,025.6,023.1,000.0,033.7,026.9,28.8,0000.0,0013.26,0005.08,0004.44
2023-08-30 21:45:00,SystemResetWarning,0829.0,5.01,000.00,025.5,022.6,000.0,033.7,026.8,29.9,0000.0,0013.79,0005.03,0004.42
2023-08-30 21:46:00,SystemResetWarning,0829.0,5.00,000.00,025.5,022.8,000.0,033.7,026.8,27.5,0000.0,0013.64,0005.00,0004.41
2023-08-30 21:47:00,SystemResetWarning,0829.0,5.00,000.00,025.5,023.2,000.0,033.7,027.0,26.5,0000.0,0013.50,0004.90,0004.37
2023-08-30 21:48:00,SystemResetWarning,0828.9,5.01,000.00,025.5,023.6,000.0,033.7,027.2,26.6,0000.0,0013.15,0004.86,0004.35
2023-08-30 21:49:00,SystemResetWarning,0828.9,5.00,000.00,025.6,024.1,000.0,033.8,027.4,27.1,0000.0,0013.17,0004.87,0004.34
2023-08-30 21:50:00,SystemResetWarning,0829.0,4.99,000.00,025.7,024.0,000.0,033.8,027.3,28.2,0000.0,0013.22,0004.86,0004.33
2023-08-30 21:51:00,SystemResetWarning,0829.0,4.99,000.00,025.6,022.9,000.0,033.7,026.8,28.7,0000.0,0013.75,0004.85,0004.32
2023-08-30 21:52:00,SystemResetWarning,0829.0,5.01,000.00,025.4,022.0,000.0,033.6,026.6,28.1,0000.0,0014.08,0004.83,0004.31
2023-08-30 21:53:00,SystemResetWarning,0828.9,5.01,000.00,025.4,022.1,000.0,033.6,026.6,27.8,0000.0,0014.80,0004.87,0004.28
2023-08-30 21:54:00,SystemResetWarning,0828.9,5.00,000.00,025.4,022.5,000.0,033.6,026.7,29.0,0000.0,0014.30,0004.86,0004.26
2023-08-30 21:55:00,SystemResetWarning,0828.9,5.00,000.00,025.4,023.0,000.0,033.6,026.9,27.7,0000.0,0013.59,0004.85,0004.23
2023-08-30 21:56:00,SystemResetWarning,0829.0,5.00,000.00,025.4,023.5,000.0,033.7,027.1,27.7,0000.0,0013.77,0004.88,0004.21
2023-08-30 21:57:00,SystemResetWarning,0829.0,5.00,000.00,025.5,024.0,000.0,033.7,027.3,27.8,0000.0,0014.02,0004.87,0004.21
2023-08-30 21:58:00,SystemResetWarning,0828.9,4.99,000.00,025.6,024.0,000.0,033.7,027.2,27.3,0000.0,0014.53,0004.88,0004.20
2023-08-30 21:59:00,SystemResetWarning,0828.9,4.99,000.00,025.5,022.9,000.0,033.6,026.9,27.0,0000.0,0014.65,0004.88,0004.19
